sat.trackr.live / text

‹ back to catalog

STARLINK-33939

NORAD 63702 · 2025-087F

PAYLOAD ACTIVE UNKNOWN

§ Identity

Operator
Country
US
Launch date
2025-04-28
Launch site
AFWTR
Launch vehicle
Mass (kg)
RCS (m²)

Purposes: comms

External: N2YO · Heavens-Above · Gunter

§ Orbital elements

Epoch: 2026-09-20T13:08:45.067776Z

Period
94.01 min
Inclination
53.1601°
Eccentricity
0.0000598
Mean motion
15.31720308 rev/d
Perigee alt
470.3 km
Apogee alt
471.1 km
Semi-major
6,848.8 km
B*
4.9862e-4
RAAN
33.0172°
Arg perigee
44.4376°
Mean anomaly
315.6674°
Rev number
7,905

§ Raw data

STARLINK-339391 63702U 25087F   26263.54774384  .00015149  00000+0  49862-3 0  99922 63702  53.1601  33.0172 0000598  44.4376 315.6674 15.31720308 79055

JSON: /api/v1/satellites/63702 · /tle

For live sub-satellite position, see the globe view (requires WebGL).

§ Visibility from observer

Set your observer location to see the next 7 days of passes ≥ 10°. The values pass through the URL so the page stays shareable.

No JS? Fill the form by hand. The geolocation button needs JavaScript.